DLH8YY EDDF-LSZH

Flight info

Callsign DLH8YY
Flight time 0h 34m
Altitude 23000
Route ANEKI2L/18 ANEKI Y163 NEKLO Y171 INKAM T725 LAMGO T721 RILAX
Aircraft A343/H-SDE2E3FGHIJ4J5M1RWXY/LB1D1

Departure

Time 2026-05-05 18:00
Airport Frankfurt Main Airport (EDDF)

Arrival

Time 2026-05-05 18:34
Airport Zürich Airport (LSZH)
Time Latitude Longitude Altitude Speed Heading
2026-05-05 16:50 50.04804 8.56587 360 ft 0 kts 340°
2026-05-05 16:51 50.04804 8.56586 360 ft 0 kts 340°
2026-05-05 16:51 50.04804 8.56587 360 ft 0 kts 340°
2026-05-05 17:41 50.04805 8.56586 387 ft 0 kts 340°
2026-05-05 17:41 50.04796 8.56591 365 ft 2 kts 340°
2026-05-05 17:41 50.04781 8.56600 369 ft 2 kts 329°
2026-05-05 17:41 50.04766 8.56609 367 ft 2 kts
2026-05-05 17:42 50.04751 8.56607 364 ft 2 kts 13°
2026-05-05 17:42 50.04736 8.56600 360 ft 2 kts 34°
2026-05-05 17:42 50.04724 8.56584 369 ft 2 kts 44°
2026-05-05 17:42 50.04708 8.56560 364 ft 4 kts 44°
2026-05-05 17:43 50.04687 8.56534 367 ft 4 kts 26°
2026-05-05 17:43 50.04663 8.56517 366 ft 4 kts 355°
2026-05-05 17:43 50.04657 8.56511 363 ft 4 kts 314°
2026-05-05 17:43 50.04672 8.56478 364 ft 4 kts 298°
2026-05-05 17:44 50.04671 8.56437 367 ft 4 kts 254°
2026-05-05 17:44 50.04660 8.56400 369 ft 3 kts 246°
2026-05-05 17:44 50.04659 8.56397 360 ft 0 kts 246°
2026-05-05 17:48 50.04657 8.56390 368 ft 2 kts 246°
2026-05-05 17:48 50.04654 8.56377 366 ft 1 kts 246°
2026-05-05 17:48 50.04643 8.56339 361 ft 8 kts 246°
2026-05-05 17:48 50.04615 8.56224 364 ft 15 kts 250°
2026-05-05 17:49 50.04574 8.56051 365 ft 14 kts 249°
2026-05-05 17:49 50.04516 8.55945 367 ft 14 kts 204°
2026-05-05 17:49 50.04411 8.55909 367 ft 17 kts 186°
2026-05-05 17:49 50.04318 8.55941 363 ft 12 kts 159°
2026-05-05 17:50 50.04242 8.55940 366 ft 10 kts 231°
2026-05-05 17:50 50.04213 8.55829 362 ft 13 kts 249°
2026-05-05 17:50 50.04177 8.55680 365 ft 15 kts 249°
2026-05-05 17:50 50.04144 8.55539 363 ft 6 kts 250°
2026-05-05 17:51 50.04129 8.55478 358 ft 7 kts 250°
2026-05-05 17:51 50.04112 8.55407 361 ft 7 kts 250°
2026-05-05 17:51 50.04097 8.55338 362 ft 7 kts 250°
2026-05-05 17:51 50.04082 8.55275 365 ft 6 kts 249°
2026-05-05 17:52 50.04068 8.55222 363 ft 5 kts 248°
2026-05-05 17:52 50.04056 8.55171 361 ft 5 kts 249°
2026-05-05 17:52 50.04043 8.55119 365 ft 6 kts 249°
2026-05-05 17:52 50.04024 8.55040 365 ft 9 kts 249°
2026-05-05 17:53 50.03999 8.54936 362 ft 12 kts 250°
2026-05-05 17:53 50.03963 8.54785 362 ft 17 kts 250°
2026-05-05 17:53 50.03917 8.54595 357 ft 20 kts 249°
2026-05-05 17:53 50.03876 8.54422 359 ft 1 kts 249°
2026-05-05 17:54 50.03862 8.54381 360 ft 7 kts 240°
2026-05-05 17:54 50.03827 8.54295 358 ft 12 kts 236°
2026-05-05 17:54 50.03785 8.54164 356 ft 15 kts 248°
2026-05-05 17:54 50.03747 8.53998 356 ft 17 kts 250°
2026-05-05 17:55 50.03702 8.53809 356 ft 20 kts 249°
2026-05-05 17:55 50.03651 8.53602 352 ft 21 kts 249°
2026-05-05 17:55 50.03601 8.53403 355 ft 13 kts 249°
2026-05-05 17:55 50.03572 8.53283 354 ft 11 kts 249°
2026-05-05 17:56 50.03548 8.53182 351 ft 9 kts 249°
2026-05-05 17:56 50.03528 8.53102 362 ft 7 kts 249°
2026-05-05 17:56 50.03512 8.53035 351 ft 8 kts 249°
2026-05-05 17:56 50.03481 8.52908 337 ft 17 kts 248°
2026-05-05 17:57 50.03434 8.52732 335 ft 13 kts 249°
2026-05-05 17:57 50.03400 8.52630 334 ft 9 kts 229°
2026-05-05 17:57 50.03357 8.52599 335 ft 6 kts 192°
2026-05-05 17:57 50.03344 8.52597 337 ft 0 kts 184°
2026-05-05 17:59 50.03230 8.52591 335 ft 50 kts 180°
2026-05-05 17:59 50.02608 8.52604 336 ft 125 kts 179°
2026-05-05 17:59 50.01521 8.52636 475 ft 178 kts 182°
2026-05-05 18:00 50.00227 8.52542 1317 ft 190 kts 184°
2026-05-05 18:00 49.98802 8.52612 1996 ft 214 kts 178°
2026-05-05 18:00 49.97293 8.52778 2845 ft 223 kts 178°
2026-05-05 18:00 49.95718 8.52931 3516 ft 229 kts 179°
2026-05-05 18:01 49.94126 8.53064 3911 ft 228 kts 179°
2026-05-05 18:01 49.92552 8.53184 4357 ft 228 kts 179°
2026-05-05 18:01 49.90979 8.53297 5124 ft 228 kts 179°
2026-05-05 18:01 49.89392 8.53407 6200 ft 228 kts 179°
2026-05-05 18:02 49.87804 8.53516 7232 ft 230 kts 180°
2026-05-05 18:02 49.86167 8.53626 8198 ft 234 kts 180°
2026-05-05 18:02 49.84533 8.53734 9172 ft 236 kts 180°
2026-05-05 18:02 49.82856 8.53845 10116 ft 239 kts 181°
2026-05-05 18:03 49.81207 8.53954 10942 ft 243 kts 181°
2026-05-05 18:03 49.79515 8.54065 11759 ft 248 kts 181°
2026-05-05 18:03 49.77755 8.54089 12445 ft 254 kts 186°
2026-05-05 18:03 49.75936 8.53881 12883 ft 272 kts 188°
2026-05-05 18:04 49.73957 8.53604 13303 ft 293 kts 188°
2026-05-05 18:04 49.71890 8.53320 13671 ft 311 kts 188°
2026-05-05 18:04 49.69698 8.53026 14002 ft 329 kts 187°
2026-05-05 18:04 49.67365 8.52717 14449 ft 342 kts 187°
2026-05-05 18:05 49.64968 8.52404 15087 ft 349 kts 186°
2026-05-05 18:05 49.62539 8.52086 15803 ft 354 kts 186°
2026-05-05 18:05 49.60068 8.51763 16515 ft 359 kts 186°
2026-05-05 18:05 49.57568 8.51435 17247 ft 363 kts 186°
2026-05-05 18:06 49.55029 8.51102 17987 ft 367 kts 186°
2026-05-05 18:06 49.53303 8.50912 18424 ft 370 kts 183°
2026-05-05 18:06 49.49865 8.50907 19257 ft 376 kts 180°
2026-05-05 18:06 49.47230 8.50999 19884 ft 380 kts 179°
2026-05-05 18:07 49.44575 8.51134 20527 ft 383 kts 178°
2026-05-05 18:07 49.41898 8.51291 21137 ft 388 kts 178°
2026-05-05 18:07 49.39184 8.51454 21698 ft 393 kts 178°
2026-05-05 18:07 49.36446 8.51618 22301 ft 396 kts 178°
2026-05-05 18:08 49.33666 8.51780 22729 ft 402 kts 178°
2026-05-05 18:08 49.30871 8.51939 22824 ft 412 kts 178°
2026-05-05 18:08 49.27966 8.52101 22818 ft 421 kts 178°
2026-05-05 18:08 49.25021 8.52264 22820 ft 423 kts 178°
2026-05-05 18:09 49.22082 8.52426 22822 ft 422 kts 178°
2026-05-05 18:09 49.19152 8.52588 22821 ft 422 kts 178°
2026-05-05 18:09 49.16224 8.52749 22821 ft 421 kts 178°
2026-05-05 18:09 49.13303 8.52910 22821 ft 421 kts 178°
2026-05-05 18:10 49.10374 8.53071 22825 ft 421 kts 178°
2026-05-05 18:10 49.07446 8.53232 22824 ft 421 kts 178°
2026-05-05 18:10 49.04521 8.53392 22823 ft 421 kts 178°
2026-05-05 18:10 49.01594 8.53552 22824 ft 421 kts 178°
2026-05-05 18:11 48.98665 8.53711 22824 ft 421 kts 178°
2026-05-05 18:11 48.95742 8.53871 22824 ft 420 kts 178°
2026-05-05 18:11 48.92826 8.54030 22826 ft 419 kts 178°
2026-05-05 18:11 48.89913 8.54189 22827 ft 419 kts 178°
2026-05-05 18:12 48.87001 8.54347 22826 ft 419 kts 178°
2026-05-05 18:12 48.84310 8.54493 22826 ft 419 kts 178°
2026-05-05 18:12 48.81360 8.54654 22826 ft 419 kts 178°
2026-05-05 18:12 48.78476 8.54810 22826 ft 419 kts 178°
2026-05-05 18:13 48.75565 8.54968 22829 ft 419 kts 178°
2026-05-05 18:13 48.72659 8.55125 22829 ft 418 kts 178°
2026-05-05 18:13 48.69757 8.55283 22830 ft 417 kts 178°
2026-05-05 18:13 48.66853 8.55440 22830 ft 417 kts 178°
2026-05-05 18:14 48.63942 8.55596 22830 ft 417 kts 178°
2026-05-05 18:14 48.61041 8.55752 22828 ft 417 kts 178°
2026-05-05 18:14 48.58144 8.55908 22828 ft 417 kts 178°
2026-05-05 18:14 48.55241 8.56063 22829 ft 417 kts 178°
2026-05-05 18:15 48.52339 8.56219 22829 ft 418 kts 178°
2026-05-05 18:15 48.49438 8.56374 22832 ft 417 kts 178°
2026-05-05 18:15 48.46533 8.56529 22832 ft 417 kts 178°
2026-05-05 18:15 48.43629 8.56684 22832 ft 417 kts 178°
2026-05-05 18:16 48.40726 8.56839 22837 ft 418 kts 178°
2026-05-05 18:16 48.37816 8.56995 22838 ft 418 kts 178°
2026-05-05 18:16 48.34919 8.57150 22837 ft 418 kts 178°
2026-05-05 18:16 48.32010 8.57305 22844 ft 417 kts 178°
2026-05-05 18:17 48.29111 8.57458 22843 ft 416 kts 178°
2026-05-05 18:17 48.26221 8.57611 22702 ft 413 kts 178°
2026-05-05 18:17 48.23398 8.57761 22442 ft 401 kts 178°
2026-05-05 18:17 48.20648 8.57904 22190 ft 392 kts 179°
2026-05-05 18:18 48.17931 8.57973 21926 ft 391 kts 183°
2026-05-05 18:18 48.15233 8.57478 21669 ft 390 kts 190°
2026-05-05 18:18 48.13462 8.56997 21492 ft 390 kts 191°
2026-05-05 18:18 48.10807 8.56237 21232 ft 388 kts 192°
2026-05-05 18:19 48.08165 8.55465 20974 ft 386 kts 192°
2026-05-05 18:19 48.05551 8.54695 20725 ft 382 kts 192°
2026-05-05 18:19 48.02956 8.53928 20304 ft 376 kts 192°
2026-05-05 18:19 48.00405 8.53174 19813 ft 373 kts 192°
2026-05-05 18:20 47.97856 8.52464 19314 ft 371 kts 189°
2026-05-05 18:20 47.95283 8.52418 18811 ft 372 kts 174°
2026-05-05 18:20 47.92798 8.53524 18311 ft 375 kts 159°
2026-05-05 18:20 47.90448 8.55239 17765 ft 379 kts 155°
2026-05-05 18:21 47.88134 8.57163 17199 ft 380 kts 153°
2026-05-05 18:21 47.85847 8.59113 16644 ft 378 kts 153°
2026-05-05 18:21 47.83581 8.61053 16104 ft 375 kts 153°
2026-05-05 18:21 47.81333 8.62985 15582 ft 372 kts 153°
2026-05-05 18:22 47.79106 8.64909 15071 ft 369 kts 153°
2026-05-05 18:22 47.76890 8.66829 14532 ft 367 kts 153°
2026-05-05 18:22 47.74703 8.68733 14039 ft 365 kts 153°
2026-05-05 18:22 47.73574 8.69717 13791 ft 363 kts 153°
2026-05-05 18:23 47.71752 8.71308 13351 ft 361 kts 153°
2026-05-05 18:23 47.69593 8.73197 12856 ft 358 kts 153°
2026-05-05 18:23 47.67455 8.75072 12367 ft 355 kts 153°
2026-05-05 18:23 47.65337 8.76940 11851 ft 353 kts 153°
2026-05-05 18:24 47.63236 8.78764 11374 ft 348 kts 156°
2026-05-05 18:24 47.60993 8.79908 10881 ft 337 kts 176°
2026-05-05 18:24 47.58699 8.79748 10431 ft 326 kts 198°
2026-05-05 18:24 47.56725 8.78326 10218 ft 311 kts 219°
2026-05-05 18:25 47.55348 8.75960 9984 ft 300 kts 239°
2026-05-05 18:25 47.54780 8.74129 9922 ft 292 kts 252°
2026-05-05 18:25 47.54803 8.70250 9889 ft 281 kts 284°
2026-05-05 18:25 47.55790 8.67796 9815 ft 280 kts 307°
2026-05-05 18:26 47.57182 8.65810 9678 ft 275 kts 313°
2026-05-05 18:26 47.58609 8.63972 9562 ft 268 kts 313°
2026-05-05 18:26 47.60010 8.62196 9446 ft 261 kts 313°
2026-05-05 18:26 47.61378 8.60468 9278 ft 256 kts 313°
2026-05-05 18:27 47.62727 8.58766 9068 ft 253 kts 313°
2026-05-05 18:27 47.64044 8.57099 8841 ft 251 kts 313°
2026-05-05 18:27 47.65366 8.55421 8591 ft 249 kts 313°
2026-05-05 18:27 47.66693 8.53734 8359 ft 247 kts 313°
2026-05-05 18:28 47.68415 8.49674 7803 ft 229 kts 277°
2026-05-05 18:28 47.68658 8.47389 7389 ft 225 kts 274°
2026-05-05 18:28 47.68643 8.45100 6812 ft 222 kts 253°
2026-05-05 18:29 47.67962 8.43073 6274 ft 220 kts 236°
2026-05-05 18:29 47.67053 8.41237 5790 ft 221 kts 233°
2026-05-05 18:29 47.66122 8.39437 5538 ft 219 kts 233°
2026-05-05 18:29 47.65193 8.37659 5299 ft 218 kts 232°
2026-05-05 18:30 47.64023 8.36220 5006 ft 224 kts 207°
2026-05-05 18:30 47.62481 8.35860 4835 ft 226 kts 181°
2026-05-05 18:30 47.60961 8.36351 4664 ft 228 kts 156°
2026-05-05 18:30 47.59713 8.37764 4532 ft 225 kts 139°
2026-05-05 18:31 47.58636 8.39376 4374 ft 216 kts 139°
2026-05-05 18:31 47.57554 8.40889 4043 ft 212 kts 143°
2026-05-05 18:31 47.56468 8.42332 3685 ft 210 kts 141°
2026-05-05 18:31 47.55416 8.43788 3411 ft 203 kts 141°
2026-05-05 18:32 47.54396 8.45180 3123 ft 197 kts 140°
2026-05-05 18:32 47.53421 8.46505 2875 ft 180 kts 140°
2026-05-05 18:32 47.52549 8.47697 2634 ft 163 kts 140°
2026-05-05 18:32 47.51748 8.48793 2414 ft 150 kts 141°
2026-05-05 18:33 47.51011 8.49796 2206 ft 140 kts 139°
2026-05-05 18:33 47.50317 8.50742 2007 ft 133 kts 140°
2026-05-05 18:33 47.49642 8.51667 1834 ft 133 kts 138°
2026-05-05 18:33 47.48968 8.52599 1671 ft 133 kts 139°
2026-05-05 18:34 47.48296 8.53522 1506 ft 131 kts 140°
2026-05-05 18:34 47.47623 8.54400 1412 ft 119 kts 140°
2026-05-05 18:34 47.47296 8.54849 1401 ft 38 kts 136°
2026-05-05 18:34 47.47115 8.55100 1402 ft 33 kts 137°
2026-05-05 18:35 47.46954 8.55317 1405 ft 29 kts 137°
2026-05-05 18:35 47.46813 8.55511 1408 ft 25 kts 139°
2026-05-05 18:35 47.46679 8.55643 1406 ft 22 kts 155°
2026-05-05 18:35 47.46596 8.55681 1401 ft 7 kts 168°
2026-05-05 18:36 47.46551 8.55694 1403 ft 6 kts 168°
2026-05-05 18:36 47.46516 8.55705 1404 ft 0 kts 168°
2026-05-05 18:36 47.46512 8.55706 1405 ft 1 kts 168°
2026-05-05 18:36 47.46509 8.55707 1401 ft 1 kts 168°
2026-05-05 18:37 47.46502 8.55709 1408 ft 1 kts 168°
2026-05-05 18:37 47.46494 8.55712 1408 ft 1 kts 168°
2026-05-05 18:37 47.46485 8.55715 1407 ft 2 kts 168°
2026-05-05 18:37 47.46473 8.55718 1407 ft 2 kts 168°
2026-05-05 18:38 47.46461 8.55722 1405 ft 2 kts 168°
2026-05-05 18:38 47.46447 8.55727 1409 ft 2 kts 168°
2026-05-05 18:38 47.46431 8.55732 1405 ft 3 kts 166°
2026-05-05 18:38 47.46406 8.55745 1409 ft 4 kts 157°
2026-05-05 18:39 47.46373 8.55774 1412 ft 5 kts 144°
2026-05-05 18:39 47.46365 8.55782 1412 ft 2 kts 143°
2026-05-05 18:39 47.46345 8.55806 1411 ft 5 kts 141°
2026-05-05 18:39 47.46313 8.55848 1413 ft 7 kts 136°
2026-05-05 18:40 47.46273 8.55908 1415 ft 9 kts 136°
2026-05-05 18:40 47.46230 8.55967 1417 ft 7 kts 137°
2026-05-05 18:40 47.46187 8.56004 1414 ft 7 kts 165°
2026-05-05 18:40 47.46165 8.56004 1411 ft 2 kts 184°
2026-05-05 18:41 47.46141 8.55998 1410 ft 5 kts 188°
2026-05-05 18:41 47.46093 8.55991 1418 ft 8 kts 185°
2026-05-05 18:41 47.46037 8.55983 1411 ft 7 kts 185°
2026-05-05 18:41 47.45977 8.55970 1412 ft 9 kts 193°
2026-05-05 18:42 47.45935 8.55951 1418 ft 4 kts 197°
2026-05-05 18:42 47.45899 8.55934 1417 ft 7 kts 198°
2026-05-05 18:42 47.45859 8.55913 1417 ft 2 kts 201°
2026-05-05 18:42 47.45847 8.55906 1417 ft 2 kts 201°
2026-05-05 18:43 47.45843 8.55904 1418 ft 0 kts 201°
2026-05-05 18:44 47.45840 8.55902 1418 ft 1 kts 201°
2026-05-05 18:44 47.45831 8.55897 1422 ft 2 kts 201°
2026-05-05 18:44 47.45809 8.55886 1419 ft 5 kts 197°
2026-05-05 18:45 47.45768 8.55875 1418 ft 8 kts 187°
2026-05-05 18:45 47.45723 8.55868 1417 ft 6 kts 186°
2026-05-05 18:45 47.45707 8.55865 1417 ft 2 kts 186°
2026-05-05 18:45 47.45683 8.55861 1417 ft 6 kts 185°
2026-05-05 18:46 47.45661 8.55851 1418 ft 5 kts 203°
2026-05-05 18:46 47.45646 8.55827 1420 ft 2 kts 233°
2026-05-05 18:46 47.45642 8.55783 1420 ft 8 kts 269°
2026-05-05 18:46 47.45651 8.55660 1411 ft 15 kts 276°
2026-05-05 18:47 47.45663 8.55500 1411 ft 17 kts 276°
2026-05-05 18:47 47.45674 8.55362 1410 ft 0 kts 276°
2026-05-05 18:47 47.45675 8.55337 1410 ft 5 kts 276°
2026-05-05 18:47 47.45679 8.55267 1408 ft 8 kts 268°
2026-05-05 18:48 47.45671 8.55232 1410 ft 3 kts 237°
2026-05-05 18:48 47.45631 8.55218 1407 ft 9 kts 174°
2026-05-05 18:48 47.45580 8.55245 1410 ft 9 kts 155°
2026-05-05 18:48 47.45509 8.55294 1412 ft 11 kts 154°
2026-05-05 18:49 47.45461 8.55328 1413 ft 10 kts 154°
2026-05-05 18:49 47.45379 8.55385 1412 ft 15 kts 155°
2026-05-05 18:49 47.45319 8.55451 1413 ft 6 kts 127°
2026-05-05 18:49 47.45293 8.55517 1416 ft 9 kts 118°
2026-05-05 18:50 47.45275 8.55603 1413 ft 10 kts 101°
2026-05-05 18:50 47.45264 8.55739 1411 ft 15 kts 95°
2026-05-05 18:50 47.45256 8.55868 1416 ft 9 kts 96°
2026-05-05 18:50 47.45251 8.55935 1413 ft 1 kts 96°
2026-05-05 18:51 47.45249 8.55959 1411 ft 3 kts 96°
2026-05-05 18:51 47.45241 8.55992 1417 ft 2 kts 133°
2026-05-05 18:51 47.45226 8.56000 1416 ft 1 kts 169°
2026-05-05 18:51 47.45217 8.55999 1418 ft 3 kts 180°
2026-05-05 18:52 47.45193 8.55996 1415 ft 2 kts 184°
2026-05-05 18:52 47.45172 8.55993 1412 ft 4 kts 186°
2026-05-05 18:52 47.45162 8.55992 1413 ft 0 kts 186°